Wind_Speed
53 55 56 57 51 43 42 47 53 58 61 64 65 66 66 67 68 68 69 69 68 65 62 59 56 52 49 46 44 42 41 41 41 42 43 44 45 46 46 46 45 44
55 56 57 57 52 46 46 49 52 56 62 65 67 68 67 68 69 70 71 71 70 68 64 61 57 53 50 47 45 44 42 41 41 42 42 43 45 45 46 47 47 46
56 57 58 59 57 52 49 50 53 57 62 66 70 70 69 70 71 72 73 74 73 70 67 63 59 55 51 48 46 44 43 42 41 42 43 43 44 45 46 47 48 48
57 58 60 63 63 55 49 51 56 58 62 67 71 71 71 72 73 73 75 76 75 73 70 66 62 58 54 51 48 45 43 42 41 41 42 43 44 45 46 47 49 50
57 59 62 65 64 54 48 52 57 59 63 68 72 72 72 73 74 75 76 77 76 75 73 70 66 62 58 54 51 46 43 41 40 41 42 43 43 44 46 48 50 51
58 60 63 65 62 51 47 52 56 59 65 71 74 74 72 74 75 76 77 79 78 76 74 71 68 65 60 56 53 47 43 41 40 40 41 41 42 44 46 48 50 52
58 62 63 63 60 52 48 52 55 60 68 73 76 76 75 76 77 77 79 80 79 77 76 73 69 66 61 57 52 47 43 42 41 40 40 41 41 43 45 47 49 51
60 63 63 63 61 54 50 52 56 62 70 75 78 78 77 79 80 80 82 83 82 80 78 75 71 67 62 57 51 46 43 42 40 40 40 41 42 43 44 46 48 50
62 65 66 67 62 53 51 53 57 64 71 77 80 79 79 81 82 83 84 85 84 82 80 76 72 68 64 58 52 46 42 41 40 41 42 42 43 44 44 45 47 49
65 67 69 69 58 50 50 53 58 66 73 80 81 80 80 81 82 84 85 86 85 84 83 79 74 70 65 59 53 47 43 42 43 44 45 44 44 45 44 45 46 48
67 70 70 65 52 46 49 54 61 68 75 82 83 81 81 82 84 86 86 87 88 87 85 81 75 71 65 59 54 48 45 45 46 47 47 46 46 46 46 46 48 49
69 68 63 54 46 48 53 58 64 70 77 84 85 83 84 84 86 88 88 89 91 89 86 81 75 69 64 60 56 50 48 48 50 50 48 48 48 49 49 50 51 53
63 59 53 46 45 53 58 61 67 74 81 86 86 85 86 86 88 90 89 91 93 91 86 80 74 69 64 61 58 54 52 53 54 52 49 48 49 51 52 53 54 56
55 53 49 47 52 60 62 65 74 81 84 86 86 85 87 88 90 90 92 94 94 90 84 79 75 70 66 62 60 58 57 57 55 53 51 51 51 53 55 56 57 58
56 52 51 56 62 64 66 73 82 85 85 86 85 85 88 90 91 92 94 95 91 86 82 81 79 73 68 65 62 60 58 56 54 52 52 53 54 56 58 58 59 59
57 53 57 64 66 66 72 83 87 85 85 84 83 85 89 90 91 93 94 90 86 84 84 85 82 75 69 65 62 58 55 53 53 53 53 54 55 58 60 59 59 60
55 58 64 67 67 71 81 88 87 84 83 82 83 87 89 90 91 93 91 89 87 88 89 89 84 75 68 64 60 57 54 53 55 56 56 55 56 58 59 58 58 59
61 66 69 69 72 80 87 88 85 82 81 82 85 89 90 92 93 92 90 90 89 87 89 89 83 75 68 64 61 58 56 57 59 60 59 59 59 59 58 56 56 56
71 73 72 74 80 85 87 86 82 80 81 84 88 91 93 94 93 92 93 92 89 87 90 91 85 77 71 67 64 62 61 62 64 64 63 62 61 60 57 55 55 55
76 75 74 78 83 85 85 82 80 81 84 87 90 94 95 94 93 95 97 95 90 90 93 92 84 76 71 69 67 65 65 66 68 69 66 62 60 61 60 58 58 56
72 72 76 81 83 83 82 81 80 83 86 89 93 94 94 94 96 98 100 98 95 93 93 89 80 73 71 71 70 70 69 70 72 72 70 67 66 67 66 64 61 57
71 76 81 82 81 81 81 80 81 85 89 92 93 94 95 98 99 101 100 97 92 89 90 90 86 82 79 77 77 76 73 73 75 75 75 74 72 71 69 66 62 57
79 82 82 80 80 81 81 80 83 88 91 92 93 95 99 101 101 101 96 89 86 88 91 92 88 86 84 83 83 81 77 78 80 80 78 77 74 71 68 65 60 56
82 82 80 79 80 81 80 82 87 90 90 91 94 99 101 102 102 100 92 85 85 90 93 90 85 83 84 84 84 81 79 81 83 82 79 77 74 70 66 62 57 53
83 81 80 81 81 79 80 84 87 88 89 93 98 101 102 103 103 100 93 89 90 94 94 89 84 83 83 84 83 81 82 84 83 81 78 75 71 67 64 60 55 51
82 82 82 82 80 79 80 84 86 90 96 100 101 102 104 105 105 102 99 97 97 97 93 89 86 84 84 84 84 84 85 85 81 78 75 71 68 66 63 60 55 51
Wind_Direction
335 334 335 337 334 331 331 332 336 340 342 341 340 339 338 338 337 337 337 336 335 333 331 328 324 319 314 309 304 299 293 287 281 276 272 269 267 265 263 261 258 256
333 332 333 335 333 327 328 330 333 338 340 340 339 337 336 336 336 336 336 335 334 333 331 328 324 320 315 310 305 301 296 290 284 279 274 270 267 264 262 260 258 255
331 331 331 333 331 324 320 325 330 333 337 338 337 336 334 335 335 335 335 335 334 333 331 329 326 321 317 312 306 301 297 292 286 281 276 272 269 266 263 260 258 255
330 330 330 331 330 322 316 322 328 330 333 334 335 334 333 334 335 335 335 335 334 333 331 329 326 323 319 315 309 303 297 292 288 283 278 273 270 267 264 261 259 257
328 329 329 331 329 321 315 321 327 329 330 331 332 332 332 334 335 335 335 336 335 333 331 329 327 323 319 316 313 307 298 293 289 284 280 276 272 269 266 263 261 259
327 327 328 330 329 321 317 322 326 327 328 329 330 330 331 333 335 335 335 335 334 333 331 329 327 324 320 316 314 310 303 296 291 286 281 278 275 271 269 266 264 263
325 325 326 328 327 319 317 322 324 325 327 329 330 330 330 333 334 334 334 334 334 333 331 329 327 325 322 317 312 309 306 300 294 289 284 280 277 274 272 270 269 267
322 322 322 325 324 316 315 319 320 323 327 330 330 329 330 332 334 334 334 334 334 333 332 330 326 324 322 319 312 307 305 303 298 294 290 286 282 278 275 273 272 271
319 319 319 321 320 313 312 315 316 320 326 330 330 329 330 331 332 333 333 333 332 332 331 329 326 323 321 319 314 306 303 303 301 298 295 291 288 283 279 277 276 275
317 316 316 318 317 312 310 311 312 317 324 328 329 328 328 329 330 331 331 331 331 330 329 328 325 323 321 319 315 307 303 304 304 301 298 295 292 288 285 283 282 281
314 313 314 316 314 311 310 309 311 315 321 326 327 326 327 327 328 329 329 329 330 329 327 326 323 321 321 319 316 309 304 305 305 304 301 299 297 294 291 289 288 287
313 312 313 314 312 312 312 311 313 316 319 323 324 324 326 326 327 328 328 328 328 327 325 324 321 319 318 318 316 311 305 305 306 306 303 302 300 298 296 295 293 291
313 313 315 316 313 314 315 315 317 317 317 320 321 323 324 325 326 327 327 327 327 325 324 323 321 319 316 314 313 311 306 304 305 305 304 303 302 301 300 299 297 295
317 316 317 316 315 316 316 316 317 317 317 318 319 320 323 324 325 326 326 326 325 324 323 323 322 321 317 314 311 308 305 303 302 304 306 306 306 305 303 302 300 298
320 316 315 315 315 314 314 315 316 316 316 316 317 319 321 323 324 325 326 326 325 324 324 324 323 321 318 316 313 307 304 302 301 304 307 309 309 308 306 305 303 302
317 312 310 311 311 309 311 313 314 314 314 314 316 318 320 322 323 325 326 325 325 325 325 324 323 321 317 316 315 310 305 302 303 306 308 310 309 309 308 308 307 305
309 306 307 307 306 306 309 311 311 311 311 313 315 318 320 321 323 324 325 324 323 323 323 323 322 320 317 316 315 312 306 304 306 309 310 310 310 309 310 310 309 307
302 302 303 303 303 305 307 308 308 308 310 312 315 317 319 321 322 323 324 323 322 321 321 323 323 320 317 316 315 312 308 307 309 311 312 313 312 311 310 311 312 310
297 297 298 299 301 304 305 305 305 307 309 312 315 317 319 320 321 322 322 322 321 320 320 322 322 319 317 316 315 313 311 311 313 313 313 312 312 313 313 314 316 314
293 293 295 298 301 302 303 304 304 306 309 312 315 317 318 320 320 321 321 322 321 319 319 321 322 320 318 317 316 315 315 315 315 314 313 313 314 316 317 319 321 319
291 293 296 299 301 302 302 303 304 307 310 313 316 317 317 319 320 320 321 322 321 319 320 322 323 321 320 318 317 317 316 316 316 317 318 318 318 319 319 320 322 320
292 294 297 299 300 301 302 303 304 307 311 313 314 315 316 318 319 320 322 322 321 320 322 323 322 321 320 319 318 318 317 317 318 320 320 319 318 319 319 319 320 319
292 294 296 298 299 301 301 302 305 308 310 312 313 314 315 317 319 321 322 321 319 320 322 321 320 319 319 318 317 318 317 318 319 319 319 318 317 316 317 317 318 317
290 292 295 298 299 299 300 302 306 308 310 311 312 313 315 317 319 321 321 319 317 318 319 318 316 315 315 315 316 316 316 317 318 318 317 316 315 314 314 315 316 315
290 292 295 298 297 297 299 303 306 307 309 310 311 313 315 317 318 320 320 317 315 315 316 315 314 314 314 314 315 315 315 316 316 315 315 315 314 313 313 313 314 313
290 291 294 295 294 295 299 303 306 307 308 310 311 312 315 316 317 318 318 316 314 314 314 314 313 313 313 313 314 313 314 314 314 314 314 313 313 313 312 311 312 310
Height
10928 10926 10923 10920 10917 10913 10910 10907 10903 10900 10896 10893 10890 10887 10883 10880 10876 10872 10868 10864 10860 10855 10851 10848 10844 10840 10837 10835 10832 10830 10829 10827 10826 10825 10824 10823 10822 10821 10821 10821 10821 10821
10924 10922 10920 10917 10914 10910 10907 10903 10900 10896 10892 10889 10886 10883 10879 10875 10871 10867 10862 10858 10854 10849 10845 10841 10837 10834 10830 10827 10825 10822 10820 10819 10818 10816 10816 10815 10814 10813 10813 10812 10812 10813
10920 10917 10915 10913 10910 10906 10902 10899 10895 10890 10887 10883 10881 10878 10874 10870 10866 10861 10856 10851 10847 10842 10838 10834 10830 10827 10823 10820 10817 10815 10813 10811 10809 10808 10807 10806 10805 10805 10805 10804 10803 10804
10916 10913 10911 10908 10905 10901 10897 10893 10889 10885 10882 10879 10876 10873 10869 10865 10860 10855 10850 10845 10840 10835 10831 10827 10823 10819 10816 10813 10810 10808 10805 10803 10801 10800 10798 10798 10797 10797 10796 10796 10795 10795
10911 10909 10906 10904 10900 10896 10892 10889 10884 10880 10877 10875 10872 10868 10864 10859 10854 10848 10844 10839 10834 10829 10824 10819 10815 10812 10808 10805 10802 10799 10797 10795 10793 10792 10790 10789 10789 10789 10788 10787 10786 10786
10906 10904 10902 10899 10896 10891 10888 10884 10879 10875 10872 10869 10866 10863 10859 10854 10849 10843 10838 10833 10828 10823 10818 10813 10809 10805 10801 10797 10793 10791 10788 10787 10785 10784 10783 10782 10781 10780 10780 10779 10778 10777
10901 10899 10897 10895 10891 10887 10883 10879 10875 10871 10867 10863 10859 10855 10851 10847 10842 10837 10833 10828 10823 10818 10813 10808 10803 10799 10795 10791 10787 10783 10781 10779 10777 10776 10776 10775 10774 10773 10772 10771 10769 10768
10895 10893 10891 10889 10886 10882 10878 10874 10870 10866 10862 10857 10852 10847 10842 10838 10834 10829 10825 10820 10815 10811 10806 10801 10796 10792 10789 10786 10781 10778 10774 10772 10770 10769 10768 10767 10766 10765 10764 10763 10762 10760
10890 10887 10885 10883 10880 10876 10872 10868 10864 10860 10856 10852 10847 10842 10837 10832 10826 10822 10817 10813 10809 10805 10801 10796 10791 10787 10783 10780 10776 10772 10769 10766 10765 10763 10762 10760 10759 10757 10756 10756 10755 10753
10884 10880 10878 10875 10872 10869 10865 10862 10858 10855 10851 10847 10843 10838 10833 10828 10823 10818 10814 10809 10804 10799 10794 10789 10784 10780 10777 10773 10769 10766 10763 10761 10759 10757 10755 10753 10751 10750 10749 10749 10748 10745
10878 10874 10870 10867 10865 10862 10860 10857 10854 10850 10846 10842 10838 10834 10830 10825 10820 10814 10809 10803 10797 10792 10786 10781 10775 10771 10770 10767 10763 10760 10758 10755 10752 10750 10748 10746 10744 10743 10742 10741 10740 10737
10872 10867 10864 10861 10859 10857 10855 10853 10849 10845 10841 10836 10832 10828 10823 10818 10813 10807 10801 10796 10791 10786 10782 10777 10770 10765 10763 10760 10756 10754 10751 10748 10745 10742 10741 10739 10737 10735 10734 10733 10731 10728
10865 10860 10857 10855 10853 10852 10849 10846 10842 10838 10833 10829 10825 10821 10816 10811 10806 10800 10795 10790 10784 10779 10775 10770 10764 10759 10755 10752 10749 10747 10744 10741 10737 10735 10734 10733 10731 10728 10725 10723 10720 10717
10858 10853 10850 10849 10848 10846 10843 10839 10835 10831 10826 10823 10819 10815 10810 10805 10800 10794 10789 10782 10776 10770 10766 10761 10756 10752 10748 10745 10742 10739 10737 10734 10730 10728 10726 10725 10723 10720 10716 10712 10708 10704
10851 10847 10845 10843 10842 10840 10836 10833 10829 10825 10820 10817 10813 10809 10804 10798 10792 10787 10781 10775 10768 10762 10758 10753 10748 10745 10741 10738 10734 10731 10728 10725 10723 10721 10719 10717 10714 10709 10704 10700 10696 10691
10844 10842 10840 10838 10836 10833 10830 10827 10823 10819 10815 10811 10807 10803 10797 10791 10786 10780 10775 10769 10762 10757 10752 10746 10742 10738 10734 10730 10727 10723 10720 10717 10716 10715 10713 10711 10707 10701 10695 10690 10685 10680
10838 10836 10835 10834 10831 10828 10825 10822 10818 10814 10809 10805 10801 10796 10791 10785 10780 10775 10770 10764 10757 10751 10746 10740 10735 10731 10726 10723 10720 10716 10713 10710 10709 10707 10705 10703 10699 10693 10687 10682 10676 10670
10833 10830 10829 10828 10826 10822 10819 10816 10812 10808 10803 10799 10794 10789 10784 10780 10775 10770 10765 10759 10752 10745 10739 10734 10728 10722 10718 10715 10712 10709 10706 10703 10701 10699 10696 10693 10689 10684 10679 10674 10667 10661
10826 10824 10824 10822 10819 10816 10812 10808 10805 10800 10796 10792 10787 10781 10776 10772 10767 10762 10756 10751 10745 10738 10731 10725 10719 10714 10709 10706 10704 10701 10698 10695 10692 10689 10686 10683 10678 10673 10668 10664 10658 10652
10819 10818 10817 10814 10811 10808 10804 10801 10796 10791 10787 10783 10778 10772 10767 10763 10759 10753 10747 10742 10736 10729 10721 10715 10710 10706 10701 10698 10696 10693 10690 10686 10683 10679 10675 10671 10667 10662 10657 10652 10648 10643
10813 10812 10810 10807 10803 10800 10796 10792 10788 10782 10778 10774 10769 10763 10758 10755 10751 10745 10737 10731 10725 10718 10711 10706 10702 10698 10695 10691 10688 10684 10681 10678 10674 10668 10663 10659 10655 10651 10646 10642 10638 10634
10808 10807 10804 10800 10796 10792 10787 10783 10778 10774 10770 10766 10761 10755 10749 10746 10742 10736 10728 10720 10713 10706 10701 10696 10692 10688 10685 10681 10678 10675 10672 10668 10663 10658 10653 10649 10645 10642 10638 10634 10630 10625
10804 10801 10798 10794 10789 10784 10778 10773 10769 10766 10762 10758 10752 10745 10740 10737 10732 10727 10721 10711 10702 10697 10693 10690 10684 10680 10676 10673 10669 10666 10663 10658 10654 10649 10645 10641 10637 10633 10630 10626 10622 10618
10798 10794 10791 10787 10782 10775 10769 10764 10760 10757 10753 10749 10742 10736 10731 10727 10722 10720 10716 10707 10698 10692 10689 10686 10681 10676 10672 10667 10663 10659 10656 10651 10646 10641 10637 10633 10629 10625 10622 10619 10616 10611
10789 10787 10784 10780 10774 10768 10761 10756 10752 10748 10744 10739 10733 10726 10722 10717 10712 10710 10708 10701 10693 10687 10682 10678 10675 10670 10666 10662 10657 10654 10649 10645 10640 10635 10630 10625 10621 10617 10614 10611 10609 10605
10782 10779 10776 10771 10766 10761 10754 10747 10743 10739 10734 10729 10723 10716 10712 10707 10702 10699 10696 10690 10684 10679 10674 10670 10666 10663 10659 10655 10651 10646 10642 10638 10633 10628 10623 10617 10612 10609 10605 10602 10600 10598